This demonstration page uses our WeatherBlox Daily Observations layout. Learn more.

Left ArrowRight Arrow

34.16533, -84.80231

Hourly Observations for March 21, 2020

Temp ( °F °C ) Dew Point ( °F °C ) Humidity (%) Winds ( mph kmh ) Pressure ( in mb ) Visibility ( mi km ) Precip ( " mm )
12:53 am 00:53 Mostly Clear 62 16.7 60 15.6 93 93 Calm 30.20 1023 10 16 0.00 0.00
1:53 am 01:53 Mostly Cloudy 62 16.7 60 15.6 93 93 Calm 30.19 1022 10 16 0.00 0.00
2:53 am 02:53 Cloudy 62 16.7 59 15 90 90 Calm 30.19 1022 10 16 0.00 0.00
3:53 am 03:53 Cloudy 62 16.7 59 15 90 90 Calm 30.19 1022 10 16 0.00 0.00
4:03 am 04:03 Cloudy with Light Rain 62 16.7 59 15 90 90 Calm 30.21 1023 9 14 0.00 0.00
4:53 am 04:53 Cloudy with Light Rain 62 16.7 60 15.6 93 93 Calm 30.19 1022 6 10 0.02 0.51
5:53 am 05:53 Cloudy with Light Rain 62 16.7 60 15.6 93 93 Calm 30.19 1023 8 13 0.01 0.25
6:17 am 06:17 Cloudy with Light Rain 62 16.7 60 15.6 93 93 Calm 30.21 1023 8 13 0.01 0.25
6:26 am 06:26 Cloudy with Light Rain 62 16.7 60 15.6 93 93 Calm 30.23 1024 5 8 0.02 0.51
6:46 am 06:46 Cloudy 62 16.7 59 15 90 90 Calm 30.23 1024 9 14 0.02 0.51
6:53 am 06:53 Cloudy 61 16.1 59 15 93 93 Calm 30.21 1023 9 14 0.02 0.51
7:53 am 07:53 Cloudy 62 16.7 59 15 90 90 Calm 30.24 1024 10 16 0.00 0.00
8:10 am 08:10 Cloudy 62 16.7 59 15 90 90 Calm 30.26 1025 10 16 0.00 0.00
8:53 am 08:53 Cloudy 62 16.7 59 15 90 90 Calm 30.26 1025 10 16 0.00 0.00
9:24 am 09:24 Cloudy 62 16.7 60 15.6 93 93 Calm 30.28 1025 10 16 0.00 0.00
9:31 am 09:31 Cloudy 63 17.2 60 15.6 90 90 Calm 30.29 1026 10 16 0.00 0.00
9:42 am 09:42 Mostly Cloudy 63 17.2 60 15.6 90 90 VRB 3 6 30.29 1026 10 16 0.00 0.00
9:50 am 09:50 Cloudy 64 18 61 16 88 88 Calm 30.29 1026 10 16 0.00 0.00
9:53 am 09:53 Cloudy 64 17.8 60 15.6 87 87 Calm 30.27 1025 10 16 0.00 0.00
10:07 am 10:07 Cloudy 64 17.8 60 15.6 87 87 VRB 3 6 30.30 1026 10 16 0.00 0.00
10:15 am 10:15 Cloudy 64 17.8 59 15 84 84 Calm 30.30 1026 10 16 0.00 0.00
10:39 am 10:39 Mostly Cloudy 64 17.8 58 14.4 81 81 VRB 3 6 30.31 1026 10 16 0.00 0.00
10:53 am 10:53 Mostly Cloudy 66 18.9 58 14.4 75 75 VRB 5 7 30.29 1026 10 16 0.00 0.00
11:53 am 11:53 Cloudy 66 18.9 57 13.9 73 73 NNW 7 11 30.30 1026 10 16 0.00 0.00
12:13 pm 12:13 Cloudy 63 17.2 56 13.3 78 78 N 10 17 30.32 1027 10 16 0.00 0.00
12:42 pm 12:42 Cloudy 66 18.9 57 13.9 73 73 N 6 9 30.32 1027 10 16 0.00 0.00
12:53 pm 12:53 Cloudy 65 18.3 56 13.3 73 73 NNW 5 7 30.30 1026 10 16 0.00 0.00
1:53 pm 13:53 Cloudy 65 18.3 56 13.3 73 73 N 9 15 30.29 1026 10 16 0.00 0.00
2:53 pm 14:53 Cloudy 63 17.2 54 12.2 73 73 N 6 9 30.29 1026 10 16 0.00 0.00
3:53 pm 15:53 Cloudy 64 17.8 54 12.2 70 70 N 5 7 30.27 1025 10 16 0.00 0.00
4:45 pm 16:45 Mostly Cloudy 65 18.3 53 11.7 66 66 Calm 30.28 1025 10 16 0.00 0.00
4:53 pm 16:53 Partly Cloudy 65 18.3 54 12.2 68 68 Calm 30.25 1025 10 16 0.00 0.00
5:53 pm 17:53 Mostly Cloudy 66 18.9 53 11.7 63 63 Calm 30.25 1024 10 16 0.00 0.00
6:53 pm 18:53 Mostly Cloudy 66 18.9 53 11.7 63 63 Calm 30.26 1025 10 16 0.00 0.00
7:53 pm 19:53 Mostly Cloudy 64 17.8 51 10.6 63 63 N 6 9 30.27 1025 10 16 0.00 0.00
8:53 pm 20:53 Partly Cloudy 59 15 47 8.3 64 64 N 9 15 30.30 1026 10 16 0.00 0.00
9:53 pm 21:53 Clear 54 12.2 45 7.2 72 72 NNW 7 11 30.32 1027 10 16 0.00 0.00
10:53 pm 22:53 Clear 52 11.1 44 6.7 75 75 VRB 3 6 30.33 1027 10 16 0.00 0.00
11:53 pm 23:53 Clear 51 10.6 43 6.1 74 74 Calm 30.32 1027 10 16 0.00 0.00

Powered by AerisWeather